Location: St. Louis
(38.6270°N, 90.1994°W)
Time: 08:53:10
(UTC-06:00)

Vanguard 2 Rocket - Pass Details

Date: 07 December 2021
Orbit: 553 x 3325 km, 32.9° (Epoch: 23 January)

Event Time Altitude Azimuth Distance (km) Brightness Sun altitude
Rises 00:49:29 0° 265° (W) 5,521 - -69.9°
Reaches altitude 10° 00:55:16 10° 245° (WSW) 5,064 - -69.1°
Maximum altitude 01:02:31 15° 216° (SW) 5,183 - -68.1°
Drops below altitude 10° 01:11:04 10° 188° (S) 6,055 - -66.8°
Exits shadow 01:18:23 - 172° (S) 7,094 11.3 -65.6°
Sets 01:19:40 0° 169° (S) 7,286 11.4 -65.4°
